Change the Weather History Date:

Sunday, December 8, 2013

  Actual Average Record
Temperature  
Mean Temperature 42 °F -  
Max Temperature 48 °F 56 °F 104 °F (1996)
Min Temperature 37 °F 36 °F 16 °F (2010)
Degree Days  
Heating Degree Days 22    
Moisture  
Dew Point 40 °F    
Average Humidity 94    
Maximum Humidity 100    
Minimum Humidity 77    
Precipitation  
Precipitation 0.21 in - - ()
Sea Level Pressure  
Sea Level Pressure 30.32 in    
Wind  
Wind Speed 10 mph (ENE)    
Max Wind Speed 14 mph    
Max Gust Speed 20 mph    
Visibility 6 miles    
Events Rain    
Averages and records for this station are not official NWS values.
T = Trace of Precipitation, MM = Missing Value Source: NWS Daily Summary

Daily Weather History Graph

Daily Weather History Graph

Search for Another Location

Airport or City:

Trip Planner

Search our weather history database for the weather conditions in past years. The results will help you decide how hot, cold, wet, or windy it might be!

Date:

Astronomy

Dec. 08, 2013 Rise Set
Actual Time 7:25 AM EST 5:20 PM EST
Civil Twilight 6:57 AM EST 5:48 PM EST
Nautical Twilight 6:26 AM EST 6:19 PM EST
Astronomical Twilight 5:55 AM EST 6:50 PM EST
Moon 11:56 AM EST (12/8) 11:55 PM EST (12/8)
Length of Visible Light 10h 50m
Length of Day
9h 55m
Waxing Crescent, 40% of the Moon is Illuminated
Dec 8
Waxing Crescent
Dec 9
First Quarter
Dec 17
Full
Dec 25
Last Quarter
Jan 1
New

Hourly Weather History & Observations

Time (EST) Temp. Windchill Dew Point Humidity Pressure Visibility Wind Dir Wind Speed Gust Speed Precip Events Conditions
12:56 AM 48.9 °F - 42.1 °F 77% 30.34 in 10.0 mi East 11.5 mph - N/A   Overcast
1:56 AM 46.9 °F - 42.1 °F 83% 30.32 in 10.0 mi East 8.1 mph - 0.00 in   Overcast
2:56 AM 46.0 °F 41.0 °F 42.1 °F 86% 30.33 in 10.0 mi ENE 10.4 mph - 0.00 in Rain Light Rain
3:46 AM 44.6 °F 40.2 °F 42.8 °F 93% 30.33 in 7.0 mi ENE 8.1 mph - 0.00 in Rain Light Rain
3:56 AM 45.0 °F 40.6 °F 43.0 °F 93% 30.32 in 5.0 mi NE 8.1 mph - 0.00 in Rain Rain
4:14 AM 44.6 °F 40.2 °F 42.8 °F 93% 30.32 in 6.0 mi ENE 8.1 mph - 0.00 in   Overcast
4:56 AM 44.1 °F 40.1 °F 43.0 °F 96% 30.32 in 7.0 mi East 6.9 mph - 0.02 in   Overcast
5:56 AM 44.1 °F 39.0 °F 43.0 °F 96% 30.33 in 7.0 mi ENE 9.2 mph - 0.01 in Rain Light Rain
6:04 AM 44.6 °F 39.2 °F 42.8 °F 93% 30.33 in 6.0 mi ENE 10.4 mph - N/A   Overcast
6:12 AM 44.6 °F 40.2 °F 42.8 °F 93% 30.33 in 5.0 mi ENE 8.1 mph - 0.00 in Rain Light Rain
6:16 AM 44.6 °F 39.2 °F 42.8 °F 93% 30.33 in 5.0 mi ENE 10.4 mph - 0.00 in Rain Light Rain
6:23 AM 42.8 °F 36.6 °F 42.8 °F 100% 30.33 in 5.0 mi ENE 11.5 mph - 0.00 in Rain Light Rain
6:43 AM 42.8 °F 37.5 °F 42.8 °F 100% 30.35 in 5.0 mi East 9.2 mph - 0.01 in Rain Light Rain
6:56 AM 43.0 °F 37.2 °F 42.1 °F 97% 30.35 in 3.0 mi ENE 10.4 mph - 0.04 in Rain Rain
7:27 AM 42.8 °F 37.0 °F 42.8 °F 100% 30.35 in 6.0 mi ENE 10.4 mph - 0.02 in Rain Light Rain
7:56 AM 43.0 °F 38.2 °F 42.1 °F 97% 30.35 in 8.0 mi ENE 8.1 mph - 0.02 in   Overcast
8:08 AM 42.8 °F 36.6 °F 41.0 °F 93% 30.35 in 6.0 mi ENE 11.5 mph - N/A   Overcast
8:19 AM 42.8 °F 37.0 °F 41.0 °F 93% 30.36 in 3.0 mi ENE 10.4 mph - 0.03 in Rain Rain
8:27 AM 42.8 °F 37.5 °F 41.0 °F 93% 30.35 in 2.5 mi ENE 9.2 mph - 0.04 in Rain Rain
8:35 AM 42.8 °F 37.5 °F 42.8 °F 100% 30.35 in 4.0 mi East 9.2 mph - 0.05 in Rain Light Rain
8:56 AM 43.0 °F 37.7 °F 41.0 °F 93% 30.35 in 10.0 mi East 9.2 mph - 0.06 in   Overcast
9:20 AM 42.8 °F 37.0 °F 41.0 °F 93% 30.34 in 10.0 mi East 10.4 mph - 0.00 in Rain Light Rain
9:28 AM 42.8 °F 37.0 °F 41.0 °F 93% 30.34 in 10.0 mi East 10.4 mph - 0.00 in Rain Light Rain
9:45 AM 42.8 °F 36.2 °F 39.2 °F 87% 30.34 in 10.0 mi East 12.7 mph - 0.00 in   Overcast
9:52 AM 42.8 °F 37.5 °F 41.0 °F 93% 30.36 in 6.0 mi NE 9.2 mph - 0.00 in   Overcast
9:56 AM 42.1 °F 37.1 °F 41.0 °F 96% 30.36 in 5.0 mi ENE 8.1 mph - 0.00 in   Overcast
10:42 AM 42.8 °F 37.5 °F 41.0 °F 93% 30.36 in 6.0 mi ENE 9.2 mph - 0.00 in   Overcast
10:52 AM 42.8 °F 36.6 °F 41.0 °F 93% 30.35 in 3.0 mi ENE 11.5 mph - 0.00 in Rain Light Rain
10:56 AM 42.1 °F 36.1 °F 41.0 °F 96% 30.35 in 3.0 mi ENE 10.4 mph - 0.00 in Rain Light Rain
11:33 AM 42.8 °F 37.5 °F 41.0 °F 93% 30.35 in 9.0 mi ENE 9.2 mph - 0.00 in   Overcast
11:43 AM 42.8 °F 37.0 °F 41.0 °F 93% 30.35 in 8.0 mi ENE 10.4 mph - 0.00 in Rain Light Rain
11:56 AM 42.1 °F 36.1 °F 41.0 °F 96% 30.34 in 7.0 mi ENE 10.4 mph - 0.00 in Rain Light Rain
12:25 PM 42.8 °F 37.0 °F 41.0 °F 93% 30.33 in 4.0 mi ENE 10.4 mph - 0.01 in Rain Light Rain
12:42 PM 42.8 °F 38.0 °F 39.2 °F 87% 30.32 in 5.0 mi ENE 8.1 mph - 0.01 in Rain Light Rain
12:56 PM 42.1 °F 36.1 °F 39.9 °F 92% 30.32 in 5.0 mi ENE 10.4 mph - 0.01 in Rain Light Rain
1:12 PM 41.0 °F 34.7 °F 39.2 °F 93% 30.31 in 5.0 mi NE 10.4 mph - 0.01 in   Overcast
1:20 PM 41.0 °F 34.7 °F 39.2 °F 93% 30.30 in 6.0 mi ENE 10.4 mph - 0.01 in   Overcast
1:35 PM 41.0 °F 34.3 °F 39.2 °F 93% 30.28 in 4.0 mi NE 11.5 mph - 0.01 in Rain Light Rain
1:56 PM 41.0 °F 35.2 °F 39.9 °F 96% 30.29 in 4.0 mi ENE 9.2 mph - 0.01 in Rain Light Rain
2:11 PM 41.0 °F 34.7 °F 39.2 °F 93% 30.28 in 2.5 mi East 10.4 mph - 0.01 in Rain Light Rain
2:21 PM 41.0 °F 34.7 °F 39.2 °F 93% 30.28 in 5.0 mi ENE 10.4 mph - 0.01 in Rain Light Rain
2:44 PM 41.0 °F 34.7 °F 39.2 °F 93% 30.28 in 1.8 mi ENE 10.4 mph - 0.03 in Rain Heavy Rain
2:56 PM 41.0 °F 34.7 °F 39.9 °F 96% 30.28 in 2.0 mi ENE 10.4 mph - 0.04 in Rain Light Rain
3:06 PM 41.0 °F 34.3 °F 39.2 °F 93% 30.27 in 5.0 mi ENE 11.5 mph - 0.00 in Rain Light Rain
3:21 PM 41.0 °F 33.9 °F 39.2 °F 93% 30.27 in 4.0 mi ENE 12.7 mph - 0.00 in Rain Light Rain
3:28 PM 39.2 °F 32.0 °F 39.2 °F 100% 30.27 in 5.0 mi ENE 11.5 mph - 0.00 in Rain Light Rain
3:56 PM 39.9 °F 33.9 °F 37.9 °F 93% 30.29 in 9.0 mi NE 9.2 mph - 0.00 in Rain Light Rain
4:56 PM 39.0 °F 31.0 °F 37.0 °F 93% 30.29 in 10.0 mi ENE 13.8 mph 19.6 mph 0.00 in   Overcast
5:37 PM 39.2 °F 32.0 °F 37.4 °F 93% 30.28 in 10.0 mi East 11.5 mph - N/A   Overcast
5:56 PM 39.0 °F 32.3 °F 37.0 °F 93% 30.29 in 10.0 mi ENE 10.4 mph - N/A   Overcast
6:08 PM 39.2 °F 32.5 °F 37.4 °F 93% 30.28 in 10.0 mi ENE 10.4 mph - N/A   Overcast
6:40 PM 37.4 °F 30.8 °F 37.4 °F 100% 30.30 in 10.0 mi ENE 9.2 mph - N/A   Overcast
6:56 PM 37.9 °F 32.1 °F 37.0 °F 97% 30.31 in 7.0 mi ENE 8.1 mph - 0.00 in Rain Light Rain
7:56 PM 37.9 °F 32.7 °F 37.0 °F 97% 30.31 in 10.0 mi NE 6.9 mph - 0.00 in   Overcast
8:56 PM 37.9 °F 32.1 °F 37.0 °F 97% 30.32 in 10.0 mi ENE 8.1 mph - N/A   Overcast
9:51 PM 37.4 °F 30.8 °F 37.4 °F 100% 30.29 in 6.0 mi East 9.2 mph - N/A   Overcast
9:56 PM 37.9 °F 31.5 °F 37.0 °F 97% 30.30 in 5.0 mi ENE 9.2 mph - N/A   Overcast
10:56 PM 37.0 °F 29.8 °F 37.0 °F 100% 30.26 in 5.0 mi ENE 10.4 mph - 0.00 in   Overcast
11:52 PM 37.4 °F - 37.4 °F 100% 30.27 in 2.5 mi Calm Calm - N/A   Overcast
11:56 PM 37.0 °F 32.4 °F 37.0 °F 100% 30.27 in 2.5 mi NE 5.8 mph - N/A   Overcast